Location: Newark
(60.7728°N, 46.2261°E)
Time: 03:51:05
(UTC+00:00)

ISS - Pass Details

Date: 28 September 2019
Orbit: 411 x 421 km, 51.6° (Epoch: 21 October)

Event Time Altitude Azimuth Distance (km) Brightness Sun altitude
Rises 16:12:03 0° 243° (WSW) 2,345 0.8 -12.2°
Reaches altitude 10° 16:14:36 10° 223° (SW) 1,483 -0.7 -12.5°
Maximum altitude 16:16:53 17° 180° (S) 1,112 -1.8 -12.8°
Enters shadow 16:18:02 15° 154° (SSE) 1,215 -1.8 -12.9°
